SCP
-0 0 0 0 0 0 0 0 0 0 0 0 0 -0 -0 -0 0 0 0 0 0 0 -0 -0 0 0 -0 -0 -0 -0 -0 -0 -0 0 0 0 0 0 0 0 0 0 -0
-0 0 0 0 0 0 0 0 0 0 0 0 0 0 0 0 0 0 0 0 0 0 0 0 0 0 0 0 -0 -0 -0 -0 0 0 0 0 0 0 0 0 0 0 -0
0 1 1 1 0 0 0 0 0 0 0 0 0 0 0 0 0 0 0 0 0 0 0 0 0 0 0 0 0 -0 -0 -0 0 0 0 0 0 0 -0 -0 -0 -0 -0
0 1 1 1 1 0 1 0 0 0 0 0 0 0 0 0 0 0 0 0 0 0 0 0 0 0 0 0 0 0 0 0 0 0 0 0 0 -0 -0 -0 -0 -0 -0
0 0 1 1 1 1 1 0 0 0 0 0 0 0 0 0 0 0 0 0 0 0 0 0 0 0 0 0 0 0 0 0 -0 0 -0 0 0 0 -0 -0 -0 -0 -0
0 0 1 1 1 1 1 1 1 1 0 0 0 0 0 0 0 0 0 0 0 0 0 0 0 0 0 0 0 0 0 0 0 0 0 0 0 -0 -0 -0 -0 -0 -0
1 1 0 0 1 1 1 1 1 1 0 0 0 1 1 1 1 0 0 0 0 0 0 0 0 0 0 0 0 0 0 0 0 -0 0 0 0 -0 -0 -0 -0 -0 -0
0 1 1 1 1 1 1 1 1 1 0 1 1 1 1 1 1 0 0 0 0 0 0 0 0 0 0 0 0 0 0 0 0 -0 -0 0 -0 -0 -0 -0 -0 -0 -0
0 0 0 1 1 1 1 1 1 1 1 1 1 1 1 1 1 0 0 0 0 0 0 0 0 0 0 0 0 0 0 0 0 0 0 0 0 -0 -0 -0 -0 -0 -0
0 1 0 1 1 1 1 1 1 1 1 1 1 1 1 1 1 1 0 0 0 0 0 0 0 0 0 0 0 0 0 0 0 0 0 0 0 0 -0 -0 -0 -0 -0
1 1 0 1 1 1 1 1 1 1 1 1 1 1 1 1 1 1 1 0 0 0 0 0 0 0 0 0 0 0 0 0 0 0 0 0 -0 0 0 -0 -0 -0 -0
1 2 2 1 0 1 2 2 2 2 2 1 1 1 1 1 1 1 1 0 0 0 0 0 0 0 0 0 0 0 0 0 0 0 0 -0 0 0 0 -0 -0 0 0
0 1 1 1 1 1 1 2 2 2 2 2 2 1 1 1 1 1 1 1 1 0 0 0 0 0 0 0 0 0 0 0 0 0 0 0 0 0 0 0 0 0 0
0 0 0 -0 1 1 3 2 2 2 2 2 2 2 2 2 1 1 1 1 1 1 1 0 0 0 0 0 0 0 0 0 0 0 0 0 0 0 0 0 -0 -0 0
0 0 0 0 -1 0 0 2 2 2 2 2 2 3 3 2 1 1 1 1 1 1 1 1 0 0 0 0 0 0 0 0 0 0 0 0 0 0 0 -0 -0 -0 -0
0 0 0 0 0 2 1 1 1 2 3 2 2 2 3 2 2 1 1 1 1 1 1 1 1 0 0 0 0 0 0 0 0 0 0 0 0 0 0 0 -0 0 -0
0 0 0 0 0 0 0 0 1 1 1 2 3 2 3 3 2 1 1 2 1 1 1 1 1 1 0 0 0 0 0 0 0 0 0 0 0 0 0 0 0 0 0
0 0 0 0 0 0 0 0 0 0 1 1 1 2 3 3 2 2 2 1 2 1 2 2 1 1 1 1 1 1 0 0 0 0 0 0 0 0 0 0 0 0 0
0 0 0 0 0 0 0 0 0 0 0 0 1 1 1 2 2 3 2 2 2 2 2 2 2 2 2 1 1 1 0 0 0 0 0 0 0 0 0 0 0 0 0
0 0 0 0 0 0 0 0 0 0 0 0 1 1 1 2 3 2 3 2 2 3 2 2 2 3 3 2 1 1 1 0 0 0 0 0 0 0 0 0 0 0 0
0 0 0 0 0 0 -0 -0 -0 -0 0 0 0 0 1 2 2 2 3 3 2 2 2 2 3 3 3 2 2 1 1 1 0 0 0 0 1 0 0 0 0 0 0
0 0 0 0 0 0 0 -0 -0 0 -0 0 0 0 0 0 2 3 3 1 2 2 2 3 4 5 5 4 3 3 2 2 0 0 1 1 0 0 0 0 0 0 0
0 0 0 0 0 0 0 0 -0 -0 0 0 0 0 0 0 1 2 3 2 3 3 2 3 5 5 5 5 3 2 2 1 2 1 1 1 0 0 0 0 0 0 0
0 0 0 0 0 0 0 0 0 0 0 0 0 0 0 0 0 0 1 2 3 3 4 3 6 7 5 4 5 2 1 0 1 1 1 1 0 0 0 0 0 0 0
0 -0 0 0 0 0 0 0 0 0 0 0 0 0 0 0 0 0 0 1 2 4 5 4 4 6 6 5 5 4 2 1 1 1 1 1 0 0 0 0 0 0 0
0 0 0 0 0 0 0 0 0 0 0 0 0 0 0 -0 0 0 0 1 1 2 3 4 4 6 6 4 4 4 2 2 1 1 1 1 1 0 0 0 0 0 0
Wind_Speed_500mb
15 2 15 26 28 29 28 26 24 23 23 25 24 23 21 20 16 17 14 14 16 19 21 22 24 22 18 14 9 6 6 3 3 10 15 21 23 25 26 28 31 32 32
13 7 12 26 28 28 28 25 23 23 24 25 25 25 22 19 17 18 16 15 15 16 17 17 18 17 16 14 12 12 5 11 13 18 22 25 27 28 27 28 27 30 32
15 12 23 29 30 29 28 27 25 24 24 25 25 27 25 20 18 17 15 15 16 15 14 13 13 12 11 12 14 12 11 12 20 23 23 25 27 26 19 24 25 30 32
16 7 19 30 35 31 30 29 27 25 25 25 25 26 25 19 18 17 15 13 14 14 14 12 11 10 9 11 15 10 12 17 21 21 22 13 21 22 21 20 24 29 28
12 15 9 26 38 35 32 30 29 27 26 26 25 26 25 18 17 18 17 15 13 14 14 12 12 12 12 12 12 10 16 22 23 22 16 7 12 19 20 21 23 25 27
1 13 15 19 41 39 34 31 29 27 26 27 27 28 26 20 18 19 18 16 14 14 13 12 14 15 14 12 10 13 18 27 20 23 22 12 2 16 20 22 24 25 25
5 10 15 18 41 41 38 33 30 28 28 29 29 29 27 22 19 20 18 16 15 14 15 14 12 14 13 11 11 14 21 25 17 8 12 8 9 16 19 22 23 24 25
3 6 14 19 25 40 40 36 33 30 30 30 30 29 28 24 22 22 21 19 17 15 16 16 16 15 13 12 15 19 21 25 15 37 16 9 11 16 21 23 20 21 22
16 17 14 19 20 34 42 40 37 34 33 32 33 32 30 27 25 25 24 21 20 17 18 18 17 17 16 14 16 22 24 28 15 13 9 15 12 18 22 23 25 24 21
23 22 25 29 29 31 45 45 42 38 37 36 37 37 35 32 30 29 27 25 23 20 21 21 19 18 17 16 17 22 26 28 21 12 15 11 9 15 22 26 24 25 22
30 27 35 30 29 28 47 50 48 45 42 41 43 42 41 40 38 37 32 29 26 25 25 25 23 21 21 20 20 22 25 26 20 12 11 12 11 7 16 26 27 26 23
32 30 25 30 26 33 45 51 51 49 48 47 48 48 48 46 45 41 38 35 33 32 30 29 27 25 25 24 23 22 22 29 22 13 10 7 9 8 8 24 28 28 25
25 19 18 22 22 29 34 49 54 55 54 53 52 51 49 49 48 48 45 44 42 40 39 37 34 31 28 27 25 23 21 31 23 13 9 13 14 13 13 22 28 29 27
21 26 25 22 22 21 39 43 43 52 58 57 57 54 52 54 53 52 53 52 51 49 45 41 38 35 31 29 26 21 22 26 31 15 15 19 16 17 15 22 28 31 29
20 13 20 31 35 30 20 50 47 53 56 58 60 60 57 57 58 55 51 54 50 49 50 48 43 40 35 33 33 30 22 21 31 21 19 20 18 19 19 23 26 30 37
2 8 9 6 6 19 24 34 53 52 49 49 57 65 64 63 64 62 59 54 51 47 43 49 47 42 39 40 40 35 33 24 33 30 22 24 26 25 20 22 25 27 33
6 5 11 12 9 12 10 20 24 47 63 59 62 55 57 63 68 69 67 61 56 51 43 42 44 42 40 35 44 40 37 38 38 37 32 31 31 26 23 29 27 27 32
8 20 14 14 14 19 19 17 18 33 44 60 69 61 66 60 63 68 70 65 62 62 53 46 47 44 45 41 43 48 47 47 43 47 43 39 33 34 34 31 33 34 35
12 17 24 28 28 32 34 33 36 36 36 44 57 71 72 74 65 69 70 68 72 66 60 58 56 53 49 50 50 49 45 53 48 46 50 51 47 46 44 40 37 40 42
25 30 33 42 49 51 54 54 52 51 48 39 49 61 71 74 70 80 72 70 71 77 71 71 66 66 58 57 54 52 53 48 50 50 52 46 54 51 52 48 45 46 45
31 37 42 50 56 61 63 64 62 68 62 53 44 55 64 66 78 86 74 77 83 90 83 76 71 70 70 63 50 54 51 55 59 58 52 54 55 57 52 50 51 50 49
37 41 43 46 54 56 58 65 63 66 72 70 61 49 63 70 75 82 74 87 94 95 99 86 85 84 78 74 68 54 48 56 63 65 59 59 56 56 54 52 54 49 48
45 49 50 49 54 60 62 68 75 71 73 79 79 72 56 46 69 82 90 104 90 107 100 112 97 93 91 86 81 56 31 34 61 68 72 68 65 65 58 63 60 58 52
51 56 58 62 61 61 67 69 69 71 74 74 79 88 79 62 44 73 92 95 103 107 117 110 116 107 100 96 93 90 67 35 36 27 57 72 71 67 63 64 65 62 59
61 67 69 66 65 65 64 67 71 74 79 82 84 86 94 87 72 52 66 95 97 99 106 110 106 127 113 107 103 102 96 66 46 42 38 53 64 70 71 67 69 66 59
69 66 66 67 69 67 66 67 67 71 79 88 89 86 88 96 96 81 53 62 94 98 95 98 112 117 121 100 95 99 102 98 82 63 50 50 55 59 64 68 68 60 50
Wind_Direction_500mb
16 22 189 186 180 171 171 174 177 175 170 169 175 177 169 161 149 151 146 150 150 154 151 151 154 161 169 175 187 206 186 147 130 127 138 138 137 134 132 132 133 131 128
320 260 203 212 196 184 176 175 178 178 173 171 176 181 178 169 161 155 153 152 152 154 150 155 162 173 181 183 171 148 128 120 123 129 138 141 145 141 137 134 138 136 132
306 256 225 206 211 199 186 180 181 180 179 177 180 184 182 175 168 162 159 156 153 159 160 165 169 179 175 165 155 136 125 117 115 122 133 141 145 139 132 134 146 138 134
343 304 232 216 209 207 196 185 183 183 185 183 185 187 186 179 172 170 165 166 162 163 162 166 176 182 181 163 149 125 124 123 123 120 110 113 147 143 139 140 147 142 137
339 310 246 239 214 206 202 192 187 186 189 187 188 189 191 188 183 179 174 177 173 170 170 172 178 176 170 157 147 127 127 123 117 119 104 88 154 149 146 150 151 145 139
178 275 281 281 221 207 203 198 192 188 191 191 189 190 196 198 194 188 185 184 184 181 183 178 176 171 169 162 150 137 131 132 146 141 150 162 209 163 157 161 159 151 148
110 286 273 296 209 209 206 199 195 190 192 192 190 192 197 202 204 198 194 194 196 195 191 188 186 180 179 167 145 138 145 154 170 187 186 151 217 181 170 167 164 161 155
277 286 278 267 218 214 212 202 196 192 194 196 194 198 201 206 208 207 203 202 204 207 204 201 196 193 197 182 157 150 156 160 174 150 161 184 220 188 177 170 168 167 162
343 302 273 268 252 229 217 208 200 195 197 200 198 199 203 208 212 211 211 211 211 209 211 212 209 206 205 200 175 161 168 163 163 155 154 215 218 188 182 178 177 175 174
330 324 308 271 262 245 226 213 205 201 201 202 204 202 202 206 209 212 214 216 220 218 212 215 211 218 223 213 193 172 178 173 169 163 177 174 200 197 186 185 186 185 182
322 321 314 311 290 270 221 220 211 205 205 206 209 205 205 205 207 209 213 219 223 222 217 219 218 218 227 225 212 188 185 178 183 136 212 163 172 189 198 198 194 194 194
323 309 300 300 297 277 231 219 218 214 211 211 215 210 209 208 209 209 212 217 221 224 222 224 222 224 225 229 225 209 185 172 177 178 203 285 203 236 232 219 202 199 201
317 336 310 299 293 281 243 225 223 220 218 217 218 217 215 215 211 210 212 216 218 224 223 222 225 224 226 229 230 224 198 186 193 191 226 197 226 244 243 225 213 207 205
310 309 308 316 283 281 250 231 233 232 228 223 222 221 219 219 217 217 215 216 219 221 224 226 228 229 226 231 228 221 217 196 201 218 213 222 240 250 241 232 216 214 210
328 308 305 310 314 302 256 241 237 237 239 236 232 225 223 223 223 219 224 218 216 218 223 225 226 227 226 228 230 222 211 207 211 217 235 238 250 255 263 232 225 219 217
245 24 131 81 306 317 312 265 248 241 244 240 233 231 230 226 225 223 220 223 219 223 223 227 225 222 225 224 226 229 225 213 218 228 231 250 242 258 247 231 227 229 225
102 58 124 149 164 184 234 249 266 257 249 241 232 231 229 231 225 221 218 225 224 224 228 228 223 219 221 217 216 224 231 230 221 232 231 233 242 240 248 235 239 241 232
209 244 263 244 239 227 240 251 254 259 254 252 249 241 238 232 227 220 219 221 226 223 225 223 220 223 218 216 218 217 229 232 233 230 239 239 243 249 251 242 246 246 246
316 309 291 295 297 281 267 261 258 260 265 256 250 243 244 238 232 224 221 224 223 221 224 228 226 223 222 217 215 222 226 236 234 232 233 240 240 245 245 246 244 244 248
333 324 315 309 305 300 293 281 274 267 255 256 254 259 247 243 235 237 229 226 226 221 220 222 225 225 230 226 217 219 225 230 235 237 237 240 242 250 252 250 244 244 242
329 321 314 308 305 301 296 294 281 274 264 253 247 244 255 253 238 234 232 235 232 230 219 219 222 225 229 226 218 221 227 228 239 236 236 233 236 244 246 254 255 253 247
332 322 315 310 305 301 297 292 286 278 269 263 252 250 244 245 252 246 236 243 238 233 224 222 219 218 224 225 211 214 219 227 232 236 235 234 235 238 245 247 255 256 255
333 325 318 309 300 297 292 288 286 279 268 265 259 259 257 250 246 249 239 235 241 241 233 223 223 223 218 220 220 206 198 216 225 235 234 234 231 240 235 240 252 255 256
331 320 317 312 306 297 293 290 283 283 280 267 263 257 254 249 245 241 244 241 231 241 240 231 224 226 226 222 213 220 219 213 203 212 231 235 233 239 236 238 246 253 259
332 329 323 318 310 306 299 292 286 278 273 273 266 260 256 252 251 242 245 245 243 237 238 239 231 229 229 230 222 217 217 217 221 214 207 219 224 233 239 242 249 255 257
336 334 328 325 320 315 307 301 292 282 272 270 270 263 259 255 253 249 246 247 247 245 242 242 246 238 227 224 227 218 222 214 215 211 206 211 218 223 228 235 243 243 252
Wind_Speed_850mb
15 2 15 26 28 29 28 26 24 23 23 25 24 23 21 20 16 17 14 14 16 19 21 22 24 22 18 14 9 6 6 3 3 10 15 21 23 25 26 28 31 32 32
13 7 12 26 28 28 28 25 23 23 24 25 25 25 22 19 17 18 16 15 15 16 17 17 18 17 16 14 12 12 5 11 13 18 22 25 27 28 27 28 27 30 32
15 12 23 29 30 29 28 27 25 24 24 25 25 27 25 20 18 17 15 15 16 15 14 13 13 12 11 12 14 12 11 12 20 23 23 25 27 26 19 24 25 30 32
16 7 19 30 35 31 30 29 27 25 25 25 25 26 25 19 18 17 15 13 14 14 14 12 11 10 9 11 15 10 12 17 21 21 22 13 21 22 21 20 24 29 28
12 15 9 26 38 35 32 30 29 27 26 26 25 26 25 18 17 18 17 15 13 14 14 12 12 12 12 12 12 10 16 22 23 22 16 7 12 19 20 21 23 25 27
1 13 15 19 41 39 34 31 29 27 26 27 27 28 26 20 18 19 18 16 14 14 13 12 14 15 14 12 10 13 18 27 20 23 22 12 2 16 20 22 24 25 25
5 10 15 18 41 41 38 33 30 28 28 29 29 29 27 22 19 20 18 16 15 14 15 14 12 14 13 11 11 14 21 25 17 8 12 8 9 16 19 22 23 24 25
3 6 14 19 25 40 40 36 33 30 30 30 30 29 28 24 22 22 21 19 17 15 16 16 16 15 13 12 15 19 21 25 15 37 16 9 11 16 21 23 20 21 22
16 17 14 19 20 34 42 40 37 34 33 32 33 32 30 27 25 25 24 21 20 17 18 18 17 17 16 14 16 22 24 28 15 13 9 15 12 18 22 23 25 24 21
23 22 25 29 29 31 45 45 42 38 37 36 37 37 35 32 30 29 27 25 23 20 21 21 19 18 17 16 17 22 26 28 21 12 15 11 9 15 22 26 24 25 22
30 27 35 30 29 28 47 50 48 45 42 41 43 42 41 40 38 37 32 29 26 25 25 25 23 21 21 20 20 22 25 26 20 12 11 12 11 7 16 26 27 26 23
32 30 25 30 26 33 45 51 51 49 48 47 48 48 48 46 45 41 38 35 33 32 30 29 27 25 25 24 23 22 22 29 22 13 10 7 9 8 8 24 28 28 25
25 19 18 22 22 29 34 49 54 55 54 53 52 51 49 49 48 48 45 44 42 40 39 37 34 31 28 27 25 23 21 31 23 13 9 13 14 13 13 22 28 29 27
21 26 25 22 22 21 39 43 43 52 58 57 57 54 52 54 53 52 53 52 51 49 45 41 38 35 31 29 26 21 22 26 31 15 15 19 16 17 15 22 28 31 29
20 13 20 31 35 30 20 50 47 53 56 58 60 60 57 57 58 55 51 54 50 49 50 48 43 40 35 33 33 30 22 21 31 21 19 20 18 19 19 23 26 30 37
2 8 9 6 6 19 24 34 53 52 49 49 57 65 64 63 64 62 59 54 51 47 43 49 47 42 39 40 40 35 33 24 33 30 22 24 26 25 20 22 25 27 33
6 5 11 12 9 12 10 20 24 47 63 59 62 55 57 63 68 69 67 61 56 51 43 42 44 42 40 35 44 40 37 38 38 37 32 31 31 26 23 29 27 27 32
8 20 14 14 14 19 19 17 18 33 44 60 69 61 66 60 63 68 70 65 62 62 53 46 47 44 45 41 43 48 47 47 43 47 43 39 33 34 34 31 33 34 35
12 17 24 28 28 32 34 33 36 36 36 44 57 71 72 74 65 69 70 68 72 66 60 58 56 53 49 50 50 49 45 53 48 46 50 51 47 46 44 40 37 40 42
25 30 33 42 49 51 54 54 52 51 48 39 49 61 71 74 70 80 72 70 71 77 71 71 66 66 58 57 54 52 53 48 50 50 52 46 54 51 52 48 45 46 45
31 37 42 50 56 61 63 64 62 68 62 53 44 55 64 66 78 86 74 77 83 90 83 76 71 70 70 63 50 54 51 55 59 58 52 54 55 57 52 50 51 50 49
37 41 43 46 54 56 58 65 63 66 72 70 61 49 63 70 75 82 74 87 94 95 99 86 85 84 78 74 68 54 48 56 63 65 59 59 56 56 54 52 54 49 48
45 49 50 49 54 60 62 68 75 71 73 79 79 72 56 46 69 82 90 104 90 107 100 112 97 93 91 86 81 56 31 34 61 68 72 68 65 65 58 63 60 58 52
51 56 58 62 61 61 67 69 69 71 74 74 79 88 79 62 44 73 92 95 103 107 117 110 116 107 100 96 93 90 67 35 36 27 57 72 71 67 63 64 65 62 59
61 67 69 66 65 65 64 67 71 74 79 82 84 86 94 87 72 52 66 95 97 99 106 110 106 127 113 107 103 102 96 66 46 42 38 53 64 70 71 67 69 66 59
69 66 66 67 69 67 66 67 67 71 79 88 89 86 88 96 96 81 53 62 94 98 95 98 112 117 121 100 95 99 102 98 82 63 50 50 55 59 64 68 68 60 50
Wind_Direction_850mb
16 22 189 186 180 171 171 174 177 175 170 169 175 177 169 161 149 151 146 150 150 154 151 151 154 161 169 175 187 206 186 147 130 127 138 138 137 134 132 132 133 131 128
320 260 203 212 196 184 176 175 178 178 173 171 176 181 178 169 161 155 153 152 152 154 150 155 162 173 181 183 171 148 128 120 123 129 138 141 145 141 137 134 138 136 132
306 256 225 206 211 199 186 180 181 180 179 177 180 184 182 175 168 162 159 156 153 159 160 165 169 179 175 165 155 136 125 117 115 122 133 141 145 139 132 134 146 138 134
343 304 232 216 209 207 196 185 183 183 185 183 185 187 186 179 172 170 165 166 162 163 162 166 176 182 181 163 149 125 124 123 123 120 110 113 147 143 139 140 147 142 137
339 310 246 239 214 206 202 192 187 186 189 187 188 189 191 188 183 179 174 177 173 170 170 172 178 176 170 157 147 127 127 123 117 119 104 88 154 149 146 150 151 145 139
178 275 281 281 221 207 203 198 192 188 191 191 189 190 196 198 194 188 185 184 184 181 183 178 176 171 169 162 150 137 131 132 146 141 150 162 209 163 157 161 159 151 148
110 286 273 296 209 209 206 199 195 190 192 192 190 192 197 202 204 198 194 194 196 195 191 188 186 180 179 167 145 138 145 154 170 187 186 151 217 181 170 167 164 161 155
277 286 278 267 218 214 212 202 196 192 194 196 194 198 201 206 208 207 203 202 204 207 204 201 196 193 197 182 157 150 156 160 174 150 161 184 220 188 177 170 168 167 162
343 302 273 268 252 229 217 208 200 195 197 200 198 199 203 208 212 211 211 211 211 209 211 212 209 206 205 200 175 161 168 163 163 155 154 215 218 188 182 178 177 175 174
330 324 308 271 262 245 226 213 205 201 201 202 204 202 202 206 209 212 214 216 220 218 212 215 211 218 223 213 193 172 178 173 169 163 177 174 200 197 186 185 186 185 182
322 321 314 311 290 270 221 220 211 205 205 206 209 205 205 205 207 209 213 219 223 222 217 219 218 218 227 225 212 188 185 178 183 136 212 163 172 189 198 198 194 194 194
323 309 300 300 297 277 231 219 218 214 211 211 215 210 209 208 209 209 212 217 221 224 222 224 222 224 225 229 225 209 185 172 177 178 203 285 203 236 232 219 202 199 201
317 336 310 299 293 281 243 225 223 220 218 217 218 217 215 215 211 210 212 216 218 224 223 222 225 224 226 229 230 224 198 186 193 191 226 197 226 244 243 225 213 207 205
310 309 308 316 283 281 250 231 233 232 228 223 222 221 219 219 217 217 215 216 219 221 224 226 228 229 226 231 228 221 217 196 201 218 213 222 240 250 241 232 216 214 210
328 308 305 310 314 302 256 241 237 237 239 236 232 225 223 223 223 219 224 218 216 218 223 225 226 227 226 228 230 222 211 207 211 217 235 238 250 255 263 232 225 219 217
245 24 131 81 306 317 312 265 248 241 244 240 233 231 230 226 225 223 220 223 219 223 223 227 225 222 225 224 226 229 225 213 218 228 231 250 242 258 247 231 227 229 225
102 58 124 149 164 184 234 249 266 257 249 241 232 231 229 231 225 221 218 225 224 224 228 228 223 219 221 217 216 224 231 230 221 232 231 233 242 240 248 235 239 241 232
209 244 263 244 239 227 240 251 254 259 254 252 249 241 238 232 227 220 219 221 226 223 225 223 220 223 218 216 218 217 229 232 233 230 239 239 243 249 251 242 246 246 246
316 309 291 295 297 281 267 261 258 260 265 256 250 243 244 238 232 224 221 224 223 221 224 228 226 223 222 217 215 222 226 236 234 232 233 240 240 245 245 246 244 244 248
333 324 315 309 305 300 293 281 274 267 255 256 254 259 247 243 235 237 229 226 226 221 220 222 225 225 230 226 217 219 225 230 235 237 237 240 242 250 252 250 244 244 242
329 321 314 308 305 301 296 294 281 274 264 253 247 244 255 253 238 234 232 235 232 230 219 219 222 225 229 226 218 221 227 228 239 236 236 233 236 244 246 254 255 253 247
332 322 315 310 305 301 297 292 286 278 269 263 252 250 244 245 252 246 236 243 238 233 224 222 219 218 224 225 211 214 219 227 232 236 235 234 235 238 245 247 255 256 255
333 325 318 309 300 297 292 288 286 279 268 265 259 259 257 250 246 249 239 235 241 241 233 223 223 223 218 220 220 206 198 216 225 235 234 234 231 240 235 240 252 255 256
331 320 317 312 306 297 293 290 283 283 280 267 263 257 254 249 245 241 244 241 231 241 240 231 224 226 226 222 213 220 219 213 203 212 231 235 233 239 236 238 246 253 259
332 329 323 318 310 306 299 292 286 278 273 273 266 260 256 252 251 242 245 245 243 237 238 239 231 229 229 230 222 217 217 217 221 214 207 219 224 233 239 242 249 255 257
336 334 328 325 320 315 307 301 292 282 272 270 270 263 259 255 253 249 246 247 247 245 242 242 246 238 227 224 227 218 222 214 215 211 206 211 218 223 228 235 243 243 252